Regional Weather Roundup
Issued by NWS

Home | Current Version | Previous Version | Text Only | Print | Product List | Glossary On
Versions: 1 2 3 4 5 6 7 8 9 10 11 12 13 14 15 16 17 18 19 20 21 22 23 24 25 26 27
000
ASUS42 KFFC 041203
RWRGA
WEATHER ROUNDUP FOR GEORGIA
NATIONAL WEATHER SERVICE PEACHTREE CITY GA
800 AM EDT WED MAY 04 2016

NOTE: "FAIR" INDICATES FEW OR NO CLOUDS BELOW 12,000 FEET WITH NO
SIGNIFICANT WEATHER AND/OR OBSTRUCTIONS TO VISIBILITY.

* = USE WITH CAUTION. THE STATIONS MARKED WITH AN ASTERISK MAY NOT
REPORT WEATHER SUCH AS PRECIPITATION, FOG, OR THUNDER AND ARE NOT
QUALITY CONTROLLED BY NWS.

THE REMARK "TC" DENOTES TEMPERATURE READING IN DEGREES CELSIUS.

GAZ001>058-041300-
NORTH GEORGIA

CITY           SKY/WX    TMP DP  RH WIND       PRES   REMARKS
ATLANTA        SUNNY     55  49  80 NW12      29.83S
6HR MIN TEMP:  53; 6HR MAX TEMP:  60;

ATHENS         SUNNY     57  50  77 NW5       29.80S
6HR MIN TEMP:  53; 6HR MAX TEMP:  60;

CHAMBLEE       SUNNY     56  49  77 NW12      29.83S
6HR MIN TEMP:  55; 6HR MAX TEMP:  59;

PEACHTREE CITY MOSUNNY   55  51  86 NW8       29.85R
6HR MIN TEMP:  51; 6HR MAX TEMP:  60;

ROME           SUNNY     54  48  80 NE3       29.86R
6HR MIN TEMP:  51; 6HR MAX TEMP:  60;

WEST ATLANTA   SUNNY     55  49  80 NW6       29.84S
6HR MIN TEMP:  50; 6HR MAX TEMP:  58;

GAINESVILLE    SUNNY     55  46  71 NW8       29.83S
6HR MIN TEMP:  53; 6HR MAX TEMP:  58;

CARTERSVILLE   SUNNY     53  51  93 CALM      29.87R
6HR MIN TEMP:  51; 6HR MAX TEMP:  59;



CITY           SKY/WX    TMP DP  RH WIND       PRES   REMARKS
DALTON*        SUNNY     50  50 100 CALM      29.86R
LAWRENCEVILLE* SUNNY     54  48  82 W7        29.83
MARIETTA       SUNNY     56  49  79 NW10      29.84R
KENNESAW*      SUNNY     54  46  76 NW6       29.85S
CANTON*        SUNNY     52  45  76 NW7       29.85S
BLAIRSVILLE*     N/A    N/A N/A N/A MISG      29.84S
$$

GAZ059>098-102>109-041300-
CENTRAL GEORGIA

CITY           SKY/WX    TMP DP  RH WIND       PRES   REMARKS
AUGUSTA-BUSH   SUNNY     63  54  72 W8        29.77R
6HR MIN TEMP:  61; 6HR MAX TEMP:  69;

AUGUSTA-DANIEL SUNNY     62  51  67 NW8       29.78R
6HR MIN TEMP:  62; 6HR MAX TEMP:  70;

COLUMBUS       SUNNY     58  51  78 N9        29.85R
6HR MIN TEMP:  56; 6HR MAX TEMP:  64;

MACON          SUNNY     58  53  84 W6        29.82S
6HR MIN TEMP:  56; 6HR MAX TEMP:  67;

ROBINS AFB     SUNNY     60  54  80 N5        29.82R


CITY           SKY/WX    TMP DP  RH WIND       PRES   REMARKS
LAGRANGE*      SUNNY     58  55  88 N6        29.85S
SYLVANIA*      CLOUDY    67  63  85 NW6       29.78R
MILLEDGEVILLE* SUNNY     59  52  77 NW3       29.81S
$$

GAZ099>101-110>166-041300-
SOUTH GEORGIA

CITY           SKY/WX    TMP DP  RH WIND       PRES   REMARKS
SAVANNAH       PTSUNNY   69  65  86 W7        29.77S
6HR MIN TEMP:  68; 6HR MAX TEMP:  69; 6HR PCP: TRACE;

VALDOSTA       CLOUDY    68  66  93 VRB3      29.81R
6HR MIN TEMP:  67; 6HR MAX TEMP:  69;

ALMA           PTSUNNY   66  62  87 NW6       29.79S
6HR MIN TEMP:  66; 6HR MAX TEMP:  68;

ST SIMONS      CLOUDY    71  67  87 NW7       29.77R
6HR MIN TEMP:  71; 6HR MAX TEMP:  73;

FT STEWART     CLOUDY    68  65  91 CALM      29.76R
ALBANY         MOSUNNY   63  56  78 N5        29.85R
HUNTER AFB     PTSUNNY   69  69 100 W8        29.74S
MOODY AFB      CLOUDY    67  64  87 NW5       29.81R
BRUNSWICK      CLOUDY    73  70  88 W3        29.78S


CITY           SKY/WX    TMP DP  RH WIND       PRES   REMARKS
BAINBRIDGE*    MOSUNNY   63  59  88 N7        29.83S
MOULTRIE*      MOSUNNY   64  61  88 N5        29.83R
VIDALIA*       MOSUNNY   64  59  82 NW5       29.80R
WAYCROSS*      CLOUDY    67  66  94 N7        29.79R
DOUGLAS*       PTSUNNY   68  59  73 NW6       29.83R
$$




USA.gov is the U.S. government's official web portal to all federal, state and local government web resources and services.